Time,TemperatureF,DewpointF,PressureIn,WindDirection,WindDirectionDegrees,WindSpeedMPH,WindSpeedGustMPH,Humidity,HourlyPrecipIn,Conditions,Clouds,dailyrainin,SoftwareType,DateUTC
2013-09-11 00:17:00,71.2,43.7,29.77,West,273,0.0,0.0,37,0.00,,---,0.00,VWS V13.01,2013-09-11 04:17:00,
2013-09-11 00:22:00,71.1,43.5,29.77,West,273,0.0,0.0,37,0.00,,---,0.00,VWS V13.01,2013-09-11 04:22:00,
2013-09-11 00:27:00,71.1,43.5,29.77,West,273,0.0,0.0,37,0.00,,---,0.00,VWS V13.01,2013-09-11 04:27:00,
2013-09-11 00:32:00,71.1,43.5,29.77,West,273,0.0,0.0,37,0.00,,---,0.00,VWS V13.01,2013-09-11 04:32:00,
2013-09-11 00:38:00,71.2,43.7,29.77,West,273,0.0,0.0,37,0.00,,---,0.00,VWS V13.01,2013-09-11 04:38:00,
2013-09-11 00:43:00,71.1,43.5,29.77,West,273,0.0,0.0,37,0.00,,---,0.00,VWS V13.01,2013-09-11 04:43:00,
2013-09-11 00:48:00,71.1,43.5,29.74,West,273,0.0,0.0,37,0.00,,---,0.00,VWS V13.01,2013-09-11 04:48:00,
2013-09-11 00:53:00,71.1,43.5,29.74,West,273,0.0,0.0,37,0.00,,---,0.00,VWS V13.01,2013-09-11 04:53:00,
2013-09-11 00:58:00,71.2,44.4,29.74,West,273,0.0,0.0,38,0.00,,---,0.00,VWS V13.01,2013-09-11 04:58:00,
2013-09-11 01:03:00,71.2,44.4,29.74,West,273,0.0,0.0,38,0.00,,---,0.00,VWS V13.01,2013-09-11 05:03:00,
2013-09-11 01:08:00,71.2,44.4,29.74,West,273,0.0,0.0,38,0.00,,---,0.00,VWS V13.01,2013-09-11 05:08:00,
2013-09-11 01:13:00,71.2,43.7,29.74,West,273,0.0,0.0,37,0.00,,---,0.00,VWS V13.01,2013-09-11 05:13:00,
2013-09-11 01:19:00,71.2,44.4,29.74,West,273,0.0,0.0,38,0.00,,---,0.00,VWS V13.01,2013-09-11 05:19:00,
2013-09-11 01:24:00,71.2,44.4,29.74,West,273,0.0,0.0,38,0.00,,---,0.00,VWS V13.01,2013-09-11 05:24:00,
2013-09-11 01:29:00,71.1,44.2,29.74,West,273,0.0,0.0,38,0.00,,---,0.00,VWS V13.01,2013-09-11 05:29:00,
2013-09-11 01:34:00,71.1,44.2,29.74,West,273,0.0,0.0,38,0.00,,---,0.00,VWS V13.01,2013-09-11 05:34:00,
2013-09-11 01:39:00,71.1,44.2,29.74,West,273,0.0,0.0,38,0.00,,---,0.00,VWS V13.01,2013-09-11 05:39:00,
2013-09-11 01:44:00,71.1,44.2,29.74,West,273,0.0,0.0,38,0.00,,---,0.00,VWS V13.01,2013-09-11 05:44:00,
2013-09-11 01:49:00,71.2,45.0,29.74,West,275,0.0,0.0,39,0.00,,---,0.00,VWS V13.01,2013-09-11 05:49:00,
2013-09-11 01:54:00,71.2,45.0,29.74,West,275,0.0,0.0,39,0.00,,---,0.00,VWS V13.01,2013-09-11 05:54:00,
2013-09-11 02:00:00,71.2,45.0,29.74,West,274,0.0,0.0,39,0.00,,---,0.00,VWS V13.01,2013-09-11 06:00:00,
2013-09-11 02:05:00,71.2,45.0,29.74,West,275,0.0,0.0,39,0.00,,---,0.00,VWS V13.01,2013-09-11 06:05:00,
2013-09-11 02:10:00,71.2,45.0,29.74,West,275,0.0,0.0,39,0.00,,---,0.00,VWS V13.01,2013-09-11 06:10:00,
2013-09-11 02:15:00,71.2,45.0,29.74,West,275,0.0,0.0,39,0.00,,---,0.00,VWS V13.01,2013-09-11 06:15:00,
2013-09-11 02:20:00,71.2,45.0,29.74,West,275,0.0,0.0,39,0.00,,---,0.00,VWS V13.01,2013-09-11 06:20:00,
2013-09-11 02:25:00,71.2,45.0,29.74,West,275,0.0,0.0,39,0.00,,---,0.00,VWS V13.01,2013-09-11 06:25:00,
2013-09-11 02:30:00,71.2,45.0,29.74,West,275,0.0,0.0,39,0.00,,---,0.00,VWS V13.01,2013-09-11 06:30:00,
2013-09-11 02:36:00,71.1,44.9,29.74,West,275,0.0,0.0,39,0.00,,---,0.00,VWS V13.01,2013-09-11 06:36:00,
2013-09-11 02:41:00,70.9,44.7,29.74,West,275,0.0,0.0,39,0.00,,---,0.00,VWS V13.01,2013-09-11 06:41:00,
2013-09-11 02:46:00,70.9,44.7,29.74,West,275,0.0,0.0,39,0.00,,---,0.00,VWS V13.01,2013-09-11 06:46:00,
2013-09-11 02:51:00,70.7,44.5,29.74,West,275,0.0,0.0,39,0.00,,---,0.00,VWS V13.01,2013-09-11 06:51:00,
2013-09-11 02:56:00,70.5,43.7,29.74,West,275,0.0,0.0,38,0.00,,---,0.00,VWS V13.01,2013-09-11 06:56:00,
2013-09-11 03:01:00,70.5,44.4,29.74,West,275,0.0,0.0,39,0.00,,---,0.00,VWS V13.01,2013-09-11 07:01:00,
2013-09-11 03:06:00,70.7,45.2,29.74,West,275,0.0,0.0,40,0.00,,---,0.00,VWS V13.01,2013-09-11 07:06:00,
2013-09-11 03:11:00,70.7,45.2,29.74,West,275,0.0,0.0,40,0.00,,---,0.00,VWS V13.01,2013-09-11 07:11:00,
2013-09-11 03:16:00,70.7,45.2,29.74,West,275,0.0,0.0,40,0.00,,---,0.00,VWS V13.01,2013-09-11 07:16:00,
2013-09-11 03:21:00,70.7,45.2,29.74,West,275,0.0,0.0,40,0.00,,---,0.00,VWS V13.01,2013-09-11 07:21:00,
2013-09-11 03:26:00,70.9,45.4,29.74,West,275,0.0,0.0,40,0.00,,---,0.00,VWS V13.01,2013-09-11 07:26:00,
2013-09-11 03:31:00,70.7,45.2,29.74,West,275,0.0,0.0,40,0.00,,---,0.00,VWS V13.01,2013-09-11 07:31:00,
2013-09-11 03:37:00,70.5,45.1,29.74,West,275,0.0,0.0,40,0.00,,---,0.00,VWS V13.01,2013-09-11 07:37:00,
2013-09-11 03:42:00,70.3,44.9,29.74,West,275,0.0,0.0,40,0.00,,---,0.00,VWS V13.01,2013-09-11 07:42:00,
2013-09-11 03:47:00,70.3,44.9,29.74,West,275,0.0,0.0,40,0.00,,---,0.00,VWS V13.01,2013-09-11 07:47:00,
2013-09-11 03:52:00,70.3,45.5,29.74,West,275,0.0,0.0,41,0.00,,---,0.00,VWS V13.01,2013-09-11 07:52:00,
2013-09-11 03:57:00,70.2,45.4,29.74,West,275,0.0,0.0,41,0.00,,---,0.00,VWS V13.01,2013-09-11 07:57:00,
2013-09-11 04:02:00,70.2,44.7,29.74,West,275,0.0,0.0,40,0.00,,---,0.00,VWS V13.01,2013-09-11 08:02:00,
2013-09-11 04:07:00,70.2,44.7,29.74,West,275,0.0,0.0,40,0.00,,---,0.00,VWS V13.01,2013-09-11 08:07:00,
2013-09-11 04:12:00,70.0,44.6,29.74,West,275,0.0,0.0,40,0.00,,---,0.00,VWS V13.01,2013-09-11 08:12:00,
2013-09-11 04:17:00,70.0,44.6,29.74,West,275,0.0,0.0,40,0.00,,---,0.00,VWS V13.01,2013-09-11 08:17:00,
2013-09-11 04:22:00,69.8,44.4,29.74,West,275,0.0,0.0,40,0.00,,---,0.00,VWS V13.01,2013-09-11 08:22:00,
2013-09-11 04:27:00,69.6,44.2,29.74,West,275,0.0,0.0,40,0.00,,---,0.00,VWS V13.01,2013-09-11 08:27:00,
2013-09-11 04:32:00,69.4,44.1,29.74,West,275,0.0,0.0,40,0.00,,---,0.00,VWS V13.01,2013-09-11 08:32:00,
2013-09-11 04:38:00,69.4,44.1,29.74,West,275,0.0,0.0,40,0.00,,---,0.00,VWS V13.01,2013-09-11 08:38:00,
2013-09-11 04:43:00,69.4,44.1,29.74,West,275,0.0,0.0,40,0.00,,---,0.00,VWS V13.01,2013-09-11 08:43:00,
2013-09-11 04:48:00,69.4,44.7,29.74,West,275,0.0,0.0,41,0.00,,---,0.00,VWS V13.01,2013-09-11 08:48:00,
2013-09-11 04:53:00,69.3,44.6,29.74,West,275,0.0,0.0,41,0.00,,---,0.00,VWS V13.01,2013-09-11 08:53:00,
2013-09-11 04:58:00,69.4,44.7,29.74,West,275,0.0,0.0,41,0.00,,---,0.00,VWS V13.01,2013-09-11 08:58:00,
2013-09-11 05:03:00,69.3,44.6,29.74,West,275,0.0,0.0,41,0.00,,---,0.00,VWS V13.01,2013-09-11 09:03:00,
2013-09-11 05:08:00,69.3,44.6,29.74,West,275,0.0,0.0,41,0.00,,---,0.00,VWS V13.01,2013-09-11 09:08:00,
2013-09-11 05:13:00,69.3,44.6,29.74,West,275,0.0,0.0,41,0.00,,---,0.00,VWS V13.01,2013-09-11 09:13:00,
2013-09-11 05:18:00,69.3,44.6,29.74,West,275,0.0,0.0,41,0.00,,---,0.00,VWS V13.01,2013-09-11 09:18:00,
2013-09-11 05:23:00,69.1,44.4,29.74,West,275,0.0,0.0,41,0.00,,---,0.00,VWS V13.01,2013-09-11 09:23:00,
2013-09-11 05:28:00,69.1,44.4,29.74,West,275,0.0,0.0,41,0.00,,---,0.00,VWS V13.01,2013-09-11 09:28:00,
2013-09-11 05:34:00,68.9,44.2,29.74,West,275,0.0,0.0,41,0.00,,---,0.00,VWS V13.01,2013-09-11 09:34:00,
2013-09-11 05:39:00,68.9,44.2,29.74,West,275,0.0,0.0,41,0.00,,---,0.00,VWS V13.01,2013-09-11 09:39:00,
2013-09-11 05:44:00,68.9,44.2,29.74,West,275,0.0,0.0,41,0.00,,---,0.00,VWS V13.01,2013-09-11 09:44:00,
2013-09-11 05:49:00,68.7,44.1,29.74,West,275,0.0,0.0,41,0.00,,---,0.00,VWS V13.01,2013-09-11 09:49:00,
2013-09-11 05:54:00,68.7,44.1,29.74,West,275,0.0,0.0,41,0.00,,---,0.00,VWS V13.01,2013-09-11 09:54:00,
2013-09-11 05:59:00,68.7,44.1,29.74,West,275,0.0,0.0,41,0.00,,---,0.00,VWS V13.01,2013-09-11 09:59:00,
2013-09-11 06:04:00,68.7,44.7,29.74,West,275,0.0,0.0,42,0.00,,---,0.00,VWS V13.01,2013-09-11 10:04:00,
2013-09-11 06:09:00,68.5,44.6,29.74,West,275,0.0,0.0,42,0.00,,---,0.00,VWS V13.01,2013-09-11 10:09:00,
2013-09-11 06:14:00,68.5,43.9,29.74,West,275,0.0,0.0,41,0.00,,---,0.00,VWS V13.01,2013-09-11 10:14:00,
2013-09-11 06:19:00,68.4,43.8,29.74,West,275,0.0,0.0,41,0.00,,---,0.00,VWS V13.01,2013-09-11 10:19:00,
2013-09-11 06:24:00,68.4,44.4,29.74,West,275,0.0,0.0,42,0.00,,---,0.00,VWS V13.01,2013-09-11 10:24:00,
2013-09-11 06:30:00,68.4,43.8,29.74,West,275,0.0,0.0,41,0.00,,---,0.00,VWS V13.01,2013-09-11 10:30:00,
2013-09-11 06:35:00,68.2,44.2,29.74,West,275,0.0,0.0,42,0.00,,---,0.00,VWS V13.01,2013-09-11 10:35:00,
2013-09-11 06:40:00,68.2,44.2,29.74,West,275,0.0,0.0,42,0.00,,---,0.00,VWS V13.01,2013-09-11 10:40:00,
2013-09-11 06:45:00,68.2,44.2,29.74,West,275,0.0,0.0,42,0.00,,---,0.00,VWS V13.01,2013-09-11 10:45:00,
2013-09-11 06:50:00,68.2,44.2,29.74,West,275,0.0,0.0,42,0.00,,---,0.00,VWS V13.01,2013-09-11 10:50:00,
2013-09-11 06:55:00,68.4,44.4,29.74,West,275,0.0,0.0,42,0.00,,---,0.00,VWS V13.01,2013-09-11 10:55:00,
2013-09-11 07:00:00,68.4,44.4,29.77,West,275,0.0,0.0,42,0.00,,---,0.00,VWS V13.01,2013-09-11 11:00:00,
2013-09-11 07:05:00,68.4,44.4,29.77,West,275,0.0,0.0,42,0.00,,---,0.00,VWS V13.01,2013-09-11 11:05:00,
2013-09-11 07:10:00,68.5,44.6,29.77,West,275,0.0,0.0,42,0.00,,---,0.00,VWS V13.01,2013-09-11 11:10:00,
2013-09-11 07:15:00,68.5,44.6,29.77,West,275,0.0,0.0,42,0.00,,---,0.00,VWS V13.01,2013-09-11 11:15:00,
2013-09-11 07:20:00,68.5,44.6,29.77,West,275,0.0,0.0,42,0.00,,---,0.00,VWS V13.01,2013-09-11 11:20:00,
2013-09-11 07:25:00,68.5,44.6,29.77,West,275,0.0,0.0,42,0.00,,---,0.00,VWS V13.01,2013-09-11 11:25:00,
2013-09-11 07:31:00,68.5,44.6,29.77,West,275,0.0,0.0,42,0.00,,---,0.00,VWS V13.01,2013-09-11 11:31:00,
2013-09-11 07:36:00,68.7,44.7,29.77,West,275,0.0,0.0,42,0.00,,---,0.00,VWS V13.01,2013-09-11 11:36:00,
2013-09-11 07:41:00,68.9,45.5,29.77,West,259,0.0,0.0,43,0.00,,---,0.00,VWS V13.01,2013-09-11 11:41:00,
2013-09-11 07:46:00,69.1,45.7,29.77,West,259,0.0,0.0,43,0.00,,---,0.00,VWS V13.01,2013-09-11 11:46:00,
2013-09-11 07:51:00,69.4,46.0,29.77,West,259,0.0,0.0,43,0.00,,---,0.00,VWS V13.01,2013-09-11 11:51:00,
2013-09-11 07:56:00,69.8,46.3,29.77,West,260,0.0,0.0,43,0.00,,---,0.00,VWS V13.01,2013-09-11 11:56:00,
2013-09-11 08:01:00,70.2,46.6,29.77,West,260,0.0,0.0,43,0.00,,---,0.00,VWS V13.01,2013-09-11 12:01:00,
2013-09-11 08:06:00,70.3,46.8,29.77,West,260,0.0,0.0,43,0.00,,---,0.00,VWS V13.01,2013-09-11 12:06:00,
2013-09-11 08:11:00,71.1,48.1,29.77,West,259,0.0,0.0,44,0.00,,---,0.00,VWS V13.01,2013-09-11 12:11:00,
2013-09-11 08:16:00,71.4,48.4,29.77,West,260,0.0,0.0,44,0.00,,---,0.00,VWS V13.01,2013-09-11 12:16:00,
2013-09-11 08:21:00,71.8,48.7,29.77,West,259,0.0,0.0,44,0.00,,---,0.00,VWS V13.01,2013-09-11 12:21:00,
2013-09-11 08:26:00,72.3,49.2,29.77,West,259,0.0,0.0,44,0.00,,---,0.00,VWS V13.01,2013-09-11 12:26:00,
2013-09-11 08:32:00,72.5,48.8,29.77,West,259,0.0,0.0,43,0.00,,---,0.00,VWS V13.01,2013-09-11 12:32:00,
2013-09-11 08:37:00,72.9,49.1,29.77,WSW,249,0.0,0.0,43,0.00,,---,0.00,VWS V13.01,2013-09-11 12:37:00,
2013-09-11 08:42:00,73.6,49.7,29.77,West,272,0.0,0.0,43,0.00,,---,0.00,VWS V13.01,2013-09-11 12:42:00,
2013-09-11 08:47:00,73.9,50.1,29.77,West,272,0.0,0.0,43,0.00,,---,0.00,VWS V13.01,2013-09-11 12:47:00,
2013-09-11 08:52:00,73.9,49.4,29.77,SW,233,0.0,0.0,42,0.00,,---,0.00,VWS V13.01,2013-09-11 12:52:00,
2013-09-11 08:57:00,74.1,49.6,29.77,WSW,256,0.0,2.7,42,0.00,,---,0.00,VWS V13.01,2013-09-11 12:57:00,
2013-09-11 09:02:00,74.3,48.4,29.77,WSW,253,0.0,0.0,40,0.00,,---,0.00,VWS V13.01,2013-09-11 13:02:00,
2013-09-11 09:07:00,74.5,47.2,29.77,WSW,245,0.0,0.0,38,0.00,,---,0.00,VWS V13.01,2013-09-11 13:07:00,
2013-09-11 09:12:00,74.8,46.8,29.77,WSW,252,0.0,0.0,37,0.00,,---,0.00,VWS V13.01,2013-09-11 13:12:00,
2013-09-11 09:17:00,75.0,46.3,29.77,NNW,330,0.0,0.0,36,0.00,,---,0.00,VWS V13.01,2013-09-11 13:17:00,
2013-09-11 09:22:00,75.4,45.9,29.77,West,260,0.0,0.0,35,0.00,,---,0.00,VWS V13.01,2013-09-11 13:22:00,
2013-09-11 09:27:00,75.7,45.4,29.77,West,260,0.0,0.0,34,0.28,,---,0.28,VWS V13.01,2013-09-11 13:27:00,
2013-09-11 09:33:00,75.9,44.8,29.77,West,260,0.0,0.0,33,0.28,,---,0.28,VWS V13.01,2013-09-11 13:33:00,
2013-09-11 09:38:00,76.3,45.1,29.77,North,357,0.0,0.0,33,0.28,,---,0.28,VWS V13.01,2013-09-11 13:38:00,
2013-09-11 09:43:00,76.5,44.4,29.77,North,357,0.0,0.0,32,0.28,,---,0.28,VWS V13.01,2013-09-11 13:43:00,
2013-09-11 09:48:00,76.6,44.6,29.77,North,357,0.0,0.0,32,0.28,,---,0.28,VWS V13.01,2013-09-11 13:48:00,
2013-09-11 09:53:00,77.2,45.1,29.77,North,357,0.0,0.0,32,0.28,,---,0.28,VWS V13.01,2013-09-11 13:53:00,
2013-09-11 09:58:00,77.4,45.2,29.77,WSW,248,0.0,0.0,32,0.28,,---,0.28,VWS V13.01,2013-09-11 13:58:00,
2013-09-11 10:03:00,77.5,44.5,29.77,WSW,247,0.0,0.0,31,0.28,,---,0.28,VWS V13.01,2013-09-11 14:03:00,
2013-09-11 10:08:00,77.9,44.9,29.77,WSW,247,0.0,0.0,31,0.28,,---,0.28,VWS V13.01,2013-09-11 14:08:00,
2013-09-11 10:13:00,78.3,45.2,29.77,WSW,247,0.0,0.0,31,0.28,,---,0.28,VWS V13.01,2013-09-11 14:13:00,
2013-09-11 10:18:00,78.6,42.8,29.77,WSW,247,0.0,2.7,28,0.28,,---,0.28,VWS V13.01,2013-09-11 14:18:00,
2013-09-11 10:23:00,79.0,42.2,29.77,West,278,0.0,0.0,27,0.28,,---,0.28,VWS V13.01,2013-09-11 14:23:00,
2013-09-11 10:28:00,79.2,42.3,29.77,West,278,0.0,0.0,27,0.28,,---,0.28,VWS V13.01,2013-09-11 14:28:00,
2013-09-11 10:34:00,79.5,41.7,29.77,West,272,0.0,0.0,26,0.28,,---,0.28,VWS V13.01,2013-09-11 14:34:00,
2013-09-11 10:39:00,79.9,43.9,29.77,WNW,286,0.0,0.0,28,0.28,,---,0.28,VWS V13.01,2013-09-11 14:39:00,
2013-09-11 10:44:00,80.8,42.7,29.77,West,277,0.0,0.0,26,0.00,,---,0.28,VWS V13.01,2013-09-11 14:44:00,
2013-09-11 10:49:00,81.1,41.0,29.77,NW,307,0.0,0.0,24,0.00,,---,0.28,VWS V13.01,2013-09-11 14:49:00,
2013-09-11 10:54:00,81.1,42.0,29.77,West,273,0.0,0.0,25,0.00,,---,0.28,VWS V13.01,2013-09-11 14:54:00,
2013-09-11 10:59:00,81.5,40.2,29.77,NW,323,0.0,0.0,23,0.00,,---,0.28,VWS V13.01,2013-09-11 14:59:00,
2013-09-11 11:04:00,81.7,41.4,29.77,WSW,246,0.0,0.0,24,0.00,,---,0.28,VWS V13.01,2013-09-11 15:04:00,
2013-09-11 11:09:00,81.9,41.6,29.77,WSW,246,0.0,0.0,24,0.00,,---,0.28,VWS V13.01,2013-09-11 15:09:00,
2013-09-11 11:14:00,82.0,41.7,29.74,WSW,246,0.0,0.0,24,0.00,,---,0.28,VWS V13.01,2013-09-11 15:14:00,
2013-09-11 11:19:00,82.4,40.9,29.74,WSW,255,0.0,0.0,23,0.00,,---,0.28,VWS V13.01,2013-09-11 15:19:00,
2013-09-11 11:24:00,82.9,41.4,29.74,WNW,292,0.0,0.0,23,0.00,,---,0.28,VWS V13.01,2013-09-11 15:24:00,
2013-09-11 11:29:00,83.1,40.4,29.74,WNW,292,0.0,0.0,22,0.00,,---,0.28,VWS V13.01,2013-09-11 15:29:00,
2013-09-11 11:35:00,83.3,40.5,29.74,NW,326,0.0,0.0,22,0.00,,---,0.28,VWS V13.01,2013-09-11 15:35:00,
2013-09-11 11:40:00,83.5,40.7,29.74,NW,326,0.0,0.0,22,0.00,,---,0.28,VWS V13.01,2013-09-11 15:40:00,
2013-09-11 11:45:00,83.7,39.6,29.74,WNW,282,0.0,0.0,21,0.00,,---,0.28,VWS V13.01,2013-09-11 15:45:00,
2013-09-11 11:50:00,83.7,39.6,29.74,WNW,282,0.0,0.0,21,0.00,,---,0.28,VWS V13.01,2013-09-11 15:50:00,
2013-09-11 11:55:00,84.2,38.8,29.74,NW,326,0.0,0.0,20,0.00,,---,0.28,VWS V13.01,2013-09-11 15:55:00,
2013-09-11 12:00:00,85.5,39.9,29.74,WNW,298,0.0,0.0,20,0.00,,---,0.28,VWS V13.01,2013-09-11 16:00:00,
2013-09-11 12:05:00,89.4,40.4,29.74,NE,34,0.0,0.0,18,0.00,,---,0.28,VWS V13.01,2013-09-11 16:05:00,
2013-09-11 12:10:00,92.7,36.5,29.74,North,357,0.0,0.0,14,0.00,,---,0.28,VWS V13.01,2013-09-11 16:10:00,
2013-09-11 12:15:00,91.4,35.6,29.74,WSW,257,0.0,0.0,14,0.00,,---,0.28,VWS V13.01,2013-09-11 16:15:00,
2013-09-11 12:20:00,89.2,32.0,29.74,WNW,294,0.0,0.0,13,0.00,,---,0.28,VWS V13.01,2013-09-11 16:20:00,
2013-09-11 12:25:00,89.1,35.5,29.74,WNW,300,0.0,0.0,15,0.00,,---,0.28,VWS V13.01,2013-09-11 16:25:00,
2013-09-11 12:30:00,89.2,35.6,29.74,WNW,300,0.0,0.0,15,0.00,,---,0.28,VWS V13.01,2013-09-11 16:30:00,
2013-09-11 12:36:00,89.4,35.7,29.74,WSW,251,0.0,0.0,15,0.00,,---,0.28,VWS V13.01,2013-09-11 16:36:00,
2013-09-11 12:41:00,88.9,35.3,29.74,North,9,0.0,0.0,15,0.00,,---,0.28,VWS V13.01,2013-09-11 16:41:00,
2013-09-11 12:46:00,89.8,36.0,29.71,NNW,344,0.0,0.0,15,0.00,,---,0.28,VWS V13.01,2013-09-11 16:46:00,
2013-09-11 12:51:00,90.1,36.3,29.71,NNW,343,0.0,0.0,15,0.00,,---,0.28,VWS V13.01,2013-09-11 16:51:00,
2013-09-11 12:56:00,89.8,30.5,29.71,West,273,0.0,0.0,12,0.00,,---,0.28,VWS V13.01,2013-09-11 16:56:00,
2013-09-11 13:01:00,90.0,30.6,29.71,WNW,285,0.0,0.0,12,0.00,,---,0.28,VWS V13.01,2013-09-11 17:01:00,
2013-09-11 13:06:00,90.0,30.6,29.71,SW,230,0.0,0.0,12,0.00,,---,0.28,VWS V13.01,2013-09-11 17:06:00,
2013-09-11 13:11:00,89.8,36.0,29.71,North,8,0.0,0.0,15,0.00,,---,0.28,VWS V13.01,2013-09-11 17:11:00,
2013-09-11 13:16:00,89.6,30.3,29.71,North,9,0.0,0.0,12,0.00,,---,0.28,VWS V13.01,2013-09-11 17:16:00,
2013-09-11 13:21:00,90.1,30.7,29.71,West,265,0.0,0.0,12,0.00,,---,0.28,VWS V13.01,2013-09-11 17:21:00,
2013-09-11 13:26:00,90.0,30.6,29.71,ENE,58,0.0,0.0,12,0.00,,---,0.28,VWS V13.01,2013-09-11 17:26:00,
2013-09-11 13:31:00,90.1,30.7,29.71,ESE,119,0.0,0.0,12,0.00,,---,0.28,VWS V13.01,2013-09-11 17:31:00,
2013-09-11 13:37:00,95.0,32.3,29.71,WSW,245,0.0,0.0,11,0.00,,---,0.28,VWS V13.01,2013-09-11 17:37:00,
2013-09-11 13:42:00,97.3,26.3,29.71,West,260,0.0,0.0,8,0.00,,---,0.28,VWS V13.01,2013-09-11 17:42:00,
2013-09-11 13:47:00,95.2,27.5,29.71,South,175,0.0,0.0,9,0.00,,---,0.28,VWS V13.01,2013-09-11 17:47:00,
2013-09-11 13:53:00,94.5,27.0,29.71,SW,216,0.0,0.0,9,0.00,,---,0.28,VWS V13.01,2013-09-11 17:53:00,
2013-09-11 13:58:00,94.8,27.3,29.71,West,260,0.0,0.0,9,0.00,,---,0.28,VWS V13.01,2013-09-11 17:58:00,
2013-09-11 14:03:00,93.4,26.2,29.71,South,179,0.0,0.0,9,0.00,,---,0.28,VWS V13.01,2013-09-11 18:03:00,
2013-09-11 14:08:00,91.8,25.0,29.71,WSW,257,0.0,0.0,9,0.00,,---,0.28,VWS V13.01,2013-09-11 18:08:00,
2013-09-11 14:13:00,90.5,26.6,29.71,SE,143,0.0,0.0,10,0.00,,---,0.28,VWS V13.01,2013-09-11 18:13:00,
2013-09-11 14:18:00,90.0,26.2,29.68,South,180,0.0,0.0,10,0.00,,---,0.28,VWS V13.01,2013-09-11 18:18:00,
2013-09-11 14:23:00,89.6,25.9,29.68,SSE,155,0.0,0.0,10,0.00,,---,0.28,VWS V13.01,2013-09-11 18:23:00,
2013-09-11 14:28:00,89.2,25.6,29.68,SSW,199,0.0,0.0,10,0.00,,---,0.28,VWS V13.01,2013-09-11 18:28:00,
2013-09-11 14:33:00,89.1,25.5,29.68,West,276,0.0,0.0,10,0.00,,---,0.28,VWS V13.01,2013-09-11 18:33:00,
2013-09-11 14:38:00,88.9,25.3,29.68,SE,143,0.0,3.6,10,0.00,,---,0.28,VWS V13.01,2013-09-11 18:38:00,
2013-09-11 14:43:00,89.2,25.6,29.68,South,171,0.0,0.0,10,0.00,,---,0.28,VWS V13.01,2013-09-11 18:43:00,
2013-09-11 14:49:00,89.2,25.6,29.68,SSW,202,0.0,0.0,10,0.00,,---,0.28,VWS V13.01,2013-09-11 18:49:00,
2013-09-11 14:54:00,88.7,25.2,29.68,WSW,248,0.0,0.0,10,0.00,,---,0.28,VWS V13.01,2013-09-11 18:54:00,
2013-09-11 14:59:00,88.9,25.3,29.68,South,180,0.0,0.0,10,0.00,,---,0.28,VWS V13.01,2013-09-11 18:59:00,
2013-09-11 15:04:00,89.1,31.9,29.68,WNW,296,0.0,0.0,13,0.00,,---,0.28,VWS V13.01,2013-09-11 19:04:00,
2013-09-11 15:09:00,88.9,25.3,29.68,SSE,167,0.0,0.0,10,0.00,,---,0.28,VWS V13.01,2013-09-11 19:09:00,
2013-09-11 15:14:00,88.7,25.2,29.68,WSW,238,0.0,0.0,10,0.00,,---,0.28,VWS V13.01,2013-09-11 19:14:00,
2013-09-11 15:19:00,88.7,25.2,29.68,SW,222,0.0,0.0,10,0.00,,---,0.28,VWS V13.01,2013-09-11 19:19:00,
2013-09-11 15:24:00,88.7,25.2,29.68,WSW,244,0.0,0.0,10,0.00,,---,0.28,VWS V13.01,2013-09-11 19:24:00,
2013-09-11 15:29:00,88.5,25.1,29.68,WSW,238,0.0,0.0,10,0.00,,---,0.28,VWS V13.01,2013-09-11 19:29:00,
2013-09-11 15:34:00,88.5,25.1,29.68,West,261,0.0,0.0,10,0.00,,---,0.28,VWS V13.01,2013-09-11 19:34:00,
2013-09-11 15:39:00,88.3,24.9,29.68,West,262,0.0,0.0,10,0.00,,---,0.28,VWS V13.01,2013-09-11 19:39:00,
2013-09-11 15:44:00,88.2,24.8,29.68,WSW,253,0.0,0.0,10,0.00,,---,0.28,VWS V13.01,2013-09-11 19:44:00,
2013-09-11 15:49:00,88.2,24.8,29.68,SSE,161,0.0,0.0,10,0.00,,---,0.28,VWS V13.01,2013-09-11 19:49:00,
2013-09-11 15:55:00,88.2,24.8,29.68,SW,232,0.0,0.0,10,0.00,,---,0.28,VWS V13.01,2013-09-11 19:55:00,
2013-09-11 16:00:00,85.8,29.4,29.68,WSW,247,0.0,0.0,13,0.00,,---,0.28,VWS V13.01,2013-09-11 20:00:00,
2013-09-11 16:05:00,83.1,32.3,29.68,South,172,0.0,0.0,16,0.00,,---,0.28,VWS V13.01,2013-09-11 20:05:00,
2013-09-11 16:10:00,82.8,32.0,29.68,ENE,60,0.0,3.1,16,0.00,,---,0.28,VWS V13.01,2013-09-11 20:10:00,
2013-09-11 16:15:00,83.1,32.3,29.68,WSW,251,0.0,3.1,16,0.00,,---,0.28,VWS V13.01,2013-09-11 20:15:00,
2013-09-11 16:20:00,83.8,32.9,29.68,NNE,27,0.0,3.1,16,0.00,,---,0.28,VWS V13.01,2013-09-11 20:20:00,
2013-09-11 16:25:00,84.4,33.3,29.68,WSW,252,0.0,0.0,16,0.00,,---,0.28,VWS V13.01,2013-09-11 20:25:00,
2013-09-11 16:30:00,85.1,28.8,29.65,WSW,238,0.0,0.0,13,0.00,,---,0.28,VWS V13.01,2013-09-11 20:30:00,
2013-09-11 16:35:00,85.5,29.1,29.65,West,262,0.0,0.0,13,0.00,,---,0.28,VWS V13.01,2013-09-11 20:35:00,
2013-09-11 16:40:00,85.6,29.2,29.65,WSW,243,0.0,0.0,13,0.00,,---,0.28,VWS V13.01,2013-09-11 20:40:00,
2013-09-11 16:45:00,85.8,29.4,29.65,WNW,298,0.0,0.0,13,0.00,,---,0.28,VWS V13.01,2013-09-11 20:45:00,
2013-09-11 16:50:00,85.8,29.4,29.65,South,173,0.0,0.0,13,0.00,,---,0.28,VWS V13.01,2013-09-11 20:50:00,
2013-09-11 16:56:00,85.8,29.4,29.65,WSW,255,0.0,0.0,13,0.00,,---,0.28,VWS V13.01,2013-09-11 20:56:00,
2013-09-11 17:01:00,85.6,29.2,29.65,WSW,246,0.0,0.0,13,0.00,,---,0.28,VWS V13.01,2013-09-11 21:01:00,
2013-09-11 17:06:00,85.5,29.1,29.65,WSW,239,0.0,0.0,13,0.00,,---,0.28,VWS V13.01,2013-09-11 21:06:00,
2013-09-11 17:11:00,85.1,28.8,29.65,WSW,253,0.0,0.0,13,0.00,,---,0.28,VWS V13.01,2013-09-11 21:11:00,
2013-09-11 17:16:00,84.9,28.6,29.65,WSW,254,0.0,0.0,13,0.00,,---,0.28,VWS V13.01,2013-09-11 21:16:00,
2013-09-11 17:21:00,84.7,28.5,29.65,North,357,0.0,0.0,13,0.00,,---,0.28,VWS V13.01,2013-09-11 21:21:00,
2013-09-11 17:26:00,84.6,28.4,29.65,WNW,285,0.0,0.0,13,0.00,,---,0.28,VWS V13.01,2013-09-11 21:26:00,
2013-09-11 17:31:00,84.2,28.1,29.65,SSE,150,0.0,0.0,13,0.00,,---,0.28,VWS V13.01,2013-09-11 21:31:00,
2013-09-11 17:36:00,84.2,28.1,29.65,SW,224,0.0,0.0,13,0.00,,---,0.28,VWS V13.01,2013-09-11 21:36:00,
2013-09-11 17:41:00,83.8,29.6,29.65,WSW,254,0.0,0.0,14,0.00,,---,0.28,VWS V13.01,2013-09-11 21:41:00,
2013-09-11 17:46:00,83.5,29.3,29.65,WSW,254,0.0,0.0,14,0.00,,---,0.28,VWS V13.01,2013-09-11 21:46:00,
2013-09-11 17:51:00,83.1,29.0,29.65,SW,225,0.0,0.0,14,0.00,,---,0.28,VWS V13.01,2013-09-11 21:51:00,
2013-09-11 17:57:00,82.9,28.9,29.65,NW,306,0.0,0.0,14,0.00,,---,0.28,VWS V13.01,2013-09-11 21:57:00,
2013-09-11 18:02:00,82.6,28.6,29.65,WNW,295,0.0,0.0,14,0.00,,---,0.28,VWS V13.01,2013-09-11 22:02:00,
2013-09-11 18:07:00,82.2,28.3,29.65,WNW,295,0.0,0.0,14,0.00,,---,0.28,VWS V13.01,2013-09-11 22:07:00,
2013-09-11 18:12:00,81.9,28.0,29.65,WNW,288,0.0,0.0,14,0.00,,---,0.28,VWS V13.01,2013-09-11 22:12:00,
2013-09-11 18:17:00,81.5,27.8,29.65,WNW,288,0.0,0.0,14,0.00,,---,0.28,VWS V13.01,2013-09-11 22:17:00,
2013-09-11 18:22:00,81.1,27.5,29.65,WNW,288,0.0,0.0,14,0.00,,---,0.28,VWS V13.01,2013-09-11 22:22:00,
2013-09-11 18:27:00,81.0,27.3,29.65,WNW,288,0.0,0.0,14,0.00,,---,0.28,VWS V13.01,2013-09-11 22:27:00,
2013-09-11 18:32:00,80.6,27.0,29.68,WNW,288,0.0,0.0,14,0.00,,---,0.28,VWS V13.01,2013-09-11 22:32:00,
2013-09-11 18:37:00,80.4,28.6,29.68,WNW,288,0.0,0.0,15,0.00,,---,0.28,VWS V13.01,2013-09-11 22:37:00,
2013-09-11 18:42:00,79.9,28.1,29.68,WNW,288,0.0,0.0,15,0.00,,---,0.28,VWS V13.01,2013-09-11 22:42:00,
2013-09-11 18:47:00,79.5,30.9,29.68,WNW,288,0.0,0.0,17,0.00,,---,0.28,VWS V13.01,2013-09-11 22:47:00,
2013-09-11 18:52:00,79.2,30.6,29.68,WNW,288,0.0,0.0,17,0.00,,---,0.28,VWS V13.01,2013-09-11 22:52:00,
2013-09-11 18:58:00,78.8,30.4,29.68,WNW,288,0.0,0.0,17,0.00,,---,0.28,VWS V13.01,2013-09-11 22:58:00,
2013-09-11 19:03:00,78.8,34.4,29.65,NNE,12,0.0,0.0,20,0.00,,---,0.28,VWS V13.01,2013-09-11 23:03:00,
2013-09-11 19:08:00,78.8,30.4,29.65,NNE,12,0.0,0.0,17,0.00,,---,0.28,VWS V13.01,2013-09-11 23:08:00,
2013-09-11 19:13:00,78.8,30.4,29.65,NNE,12,0.0,0.0,17,0.00,,---,0.28,VWS V13.01,2013-09-11 23:13:00,
2013-09-11 19:18:00,78.6,31.6,29.68,NNE,12,0.0,0.0,18,0.00,,---,0.28,VWS V13.01,2013-09-11 23:18:00,
2013-09-11 19:23:00,78.4,34.1,29.68,NNE,12,0.0,0.0,20,0.00,,---,0.28,VWS V13.01,2013-09-11 23:23:00,
2013-09-11 19:28:00,78.3,31.3,29.68,NNE,12,0.0,0.0,18,0.00,,---,0.28,VWS V13.01,2013-09-11 23:28:00,
2013-09-11 19:33:00,78.3,33.9,29.68,NNE,12,0.0,0.0,20,0.00,,---,0.28,VWS V13.01,2013-09-11 23:33:00,
2013-09-11 19:38:00,78.1,31.2,29.68,NNE,12,0.0,0.0,18,0.00,,---,0.28,VWS V13.01,2013-09-11 23:38:00,
2013-09-11 19:43:00,78.1,31.2,29.68,NNE,12,0.0,0.0,18,0.00,,---,0.28,VWS V13.01,2013-09-11 23:43:00,
2013-09-11 19:48:00,77.9,31.0,29.68,NNE,12,0.0,0.0,18,0.00,,---,0.28,VWS V13.01,2013-09-11 23:48:00,
2013-09-11 19:54:00,77.9,31.0,29.68,NNE,12,0.0,0.0,18,0.00,,---,0.28,VWS V13.01,2013-09-11 23:54:00,
2013-09-11 19:59:00,77.7,30.9,29.68,NNE,12,0.0,0.0,18,0.00,,---,0.28,VWS V13.01,2013-09-11 23:59:00,
2013-09-11 20:04:00,77.7,30.9,29.68,NNE,12,0.0,0.0,18,0.00,,---,0.28,VWS V13.01,2013-09-12 00:04:00,
2013-09-11 20:09:00,77.5,33.3,29.68,NNE,12,0.0,0.0,20,0.00,,---,0.28,VWS V13.01,2013-09-12 00:09:00,
2013-09-11 20:14:00,77.4,33.2,29.68,NNE,12,0.0,0.0,20,0.00,,---,0.28,VWS V13.01,2013-09-12 00:14:00,
2013-09-11 20:19:00,77.2,33.0,29.68,NNE,12,0.0,0.0,20,0.00,,---,0.28,VWS V13.01,2013-09-12 00:19:00,
2013-09-11 20:24:00,77.0,32.9,29.68,NNE,12,0.0,0.0,20,0.00,,---,0.28,VWS V13.01,2013-09-12 00:24:00,
2013-09-11 20:29:00,77.0,32.9,29.68,NNE,12,0.0,0.0,20,0.00,,---,0.28,VWS V13.01,2013-09-12 00:29:00,
2013-09-11 20:34:00,76.8,34.0,29.68,NNE,12,0.0,0.0,21,0.00,,---,0.28,VWS V13.01,2013-09-12 00:34:00,
2013-09-11 20:39:00,76.5,33.7,29.68,NNE,12,0.0,0.0,21,0.00,,---,0.28,VWS V13.01,2013-09-12 00:39:00,
2013-09-11 20:45:00,76.3,33.5,29.68,NNE,12,0.0,0.0,21,0.00,,---,0.28,VWS V13.01,2013-09-12 00:45:00,
2013-09-11 20:50:00,76.1,33.4,29.68,NNE,12,0.0,0.0,21,0.00,,---,0.28,VWS V13.01,2013-09-12 00:50:00,
2013-09-11 20:55:00,75.9,34.4,29.68,NNE,12,0.0,0.0,22,0.00,,---,0.28,VWS V13.01,2013-09-12 00:55:00,
2013-09-11 21:00:00,75.6,34.1,29.68,NNE,12,0.0,0.0,22,0.00,,---,0.28,VWS V13.01,2013-09-12 01:00:00,
2013-09-11 21:05:00,75.6,34.1,29.68,NNE,12,0.0,0.0,22,0.00,,---,0.28,VWS V13.01,2013-09-12 01:05:00,
2013-09-11 21:10:00,75.4,33.9,29.68,NNE,12,0.0,0.0,22,0.00,,---,0.28,VWS V13.01,2013-09-12 01:10:00,
2013-09-11 21:15:00,75.4,33.9,29.68,NNE,12,0.0,0.0,22,0.00,,---,0.28,VWS V13.01,2013-09-12 01:15:00,
2013-09-11 21:20:00,75.2,33.8,29.68,NNE,12,0.0,0.0,22,0.00,,---,0.28,VWS V13.01,2013-09-12 01:20:00,
2013-09-11 21:25:00,75.0,34.7,29.68,NNE,12,0.0,0.0,23,0.00,,---,0.28,VWS V13.01,2013-09-12 01:25:00,
2013-09-11 21:31:00,75.0,34.7,29.68,NNE,12,0.0,0.0,23,0.00,,---,0.28,VWS V13.01,2013-09-12 01:31:00,
2013-09-11 21:36:00,74.8,34.6,29.68,NNE,12,0.0,0.0,23,0.00,,---,0.28,VWS V13.01,2013-09-12 01:36:00,
2013-09-11 21:41:00,74.8,36.7,29.68,North,6,0.0,0.0,25,0.00,,---,0.28,VWS V13.01,2013-09-12 01:41:00,
2013-09-11 21:46:00,74.7,36.5,29.68,North,6,0.0,0.0,25,0.00,,---,0.28,VWS V13.01,2013-09-12 01:46:00,
2013-09-11 21:51:00,74.7,36.5,29.68,North,6,0.0,0.0,25,0.00,,---,0.28,VWS V13.01,2013-09-12 01:51:00,
2013-09-11 21:56:00,74.7,36.5,29.68,North,6,0.0,0.0,25,0.00,,---,0.28,VWS V13.01,2013-09-12 01:56:00,
2013-09-11 22:01:00,74.5,36.4,29.68,North,6,0.0,0.0,25,0.00,,---,0.28,VWS V13.01,2013-09-12 02:01:00,
2013-09-11 22:06:00,74.5,36.4,29.68,North,6,0.0,0.0,25,0.00,,---,0.28,VWS V13.01,2013-09-12 02:06:00,
2013-09-11 22:12:00,74.3,36.2,29.68,North,6,0.0,0.0,25,0.00,,---,0.28,VWS V13.01,2013-09-12 02:12:00,
2013-09-11 22:17:00,74.1,37.1,29.68,North,6,0.0,0.0,26,0.00,,---,0.28,VWS V13.01,2013-09-12 02:17:00,
2013-09-11 22:22:00,74.1,38.0,29.68,North,6,0.0,0.0,27,0.00,,---,0.28,VWS V13.01,2013-09-12 02:22:00,
2013-09-11 22:27:00,73.9,37.9,29.68,North,6,0.0,0.0,27,0.00,,---,0.28,VWS V13.01,2013-09-12 02:27:00,
2013-09-11 22:32:00,73.9,37.9,29.68,North,6,0.0,0.0,27,0.00,,---,0.28,VWS V13.01,2013-09-12 02:32:00,
2013-09-11 22:37:00,73.8,37.7,29.68,North,6,0.0,0.0,27,0.00,,---,0.28,VWS V13.01,2013-09-12 02:37:00,
2013-09-11 22:42:00,73.6,37.6,29.68,North,6,0.0,0.0,27,0.00,,---,0.28,VWS V13.01,2013-09-12 02:42:00,
2013-09-11 22:47:00,73.6,38.5,29.68,North,6,0.0,0.0,28,0.00,,---,0.28,VWS V13.01,2013-09-12 02:47:00,
2013-09-11 22:52:00,73.4,38.3,29.68,North,6,0.0,0.0,28,0.00,,---,0.28,VWS V13.01,2013-09-12 02:52:00,
2013-09-11 22:58:00,73.4,38.3,29.68,North,6,0.0,0.0,28,0.00,,---,0.28,VWS V13.01,2013-09-12 02:58:00,
2013-09-11 23:03:00,73.2,39.1,29.68,North,6,0.0,0.0,29,0.00,,---,0.28,VWS V13.01,2013-09-12 03:03:00,
2013-09-11 23:08:00,73.2,40.0,29.68,North,6,0.0,0.0,30,0.00,,---,0.28,VWS V13.01,2013-09-12 03:08:00,
2013-09-11 23:13:00,73.2,40.0,29.68,North,6,0.0,0.0,30,0.00,,---,0.28,VWS V13.01,2013-09-12 03:13:00,
2013-09-11 23:18:00,73.2,40.0,29.68,North,6,0.0,0.0,30,0.00,,---,0.28,VWS V13.01,2013-09-12 03:18:00,
2013-09-11 23:23:00,73.2,40.8,29.68,North,6,0.0,0.0,31,0.00,,---,0.28,VWS V13.01,2013-09-12 03:23:00,
2013-09-11 23:28:00,73.2,40.8,29.68,North,6,0.0,0.0,31,0.00,,---,0.28,VWS V13.01,2013-09-12 03:28:00,
2013-09-11 23:34:00,73.2,40.8,29.65,North,6,0.0,0.0,31,0.00,,---,0.28,VWS V13.01,2013-09-12 03:34:00,
2013-09-11 23:39:00,73.0,40.6,29.65,North,6,0.0,0.0,31,0.00,,---,0.28,VWS V13.01,2013-09-12 03:39:00,
2013-09-11 23:44:00,72.9,40.5,29.65,North,6,0.0,0.0,31,0.00,,---,0.28,VWS V13.01,2013-09-12 03:44:00,
2013-09-11 23:49:00,72.9,40.5,29.65,North,6,0.0,0.0,31,0.00,,---,0.28,VWS V13.01,2013-09-12 03:49:00,
2013-09-11 23:54:00,72.7,40.3,29.65,North,6,0.0,0.0,31,0.00,,---,0.28,VWS V13.01,2013-09-12 03:54:00,